Location: Waco, TX
(31.5480°N, 97.1670°W)
Time: 13:37:00
(UTC-05:00)

ISS - Pass Details

Date: 12 May 2021
Orbit: 417 x 422 km, 51.6° (Epoch: 15 May)

Event Time Altitude Azimuth Distance (km) Brightness Sun altitude
Rises 00:19:08 0° 275° (W) 2,353 - -37.8°
Reaches altitude 10° 00:22:56 10° 319° (NW) 1,495 - -38.1°
Maximum altitude 00:23:32 10° 330° (NNW) 1,474 - -38.1°
Drops below altitude 10° 00:24:08 10° 340° (NNW) 1,496 - -38.2°
Sets 00:27:57 0° 24° (NNE) 2,364 - -38.4°
